Mitchell Lake Weather Center

Moon Phase Calendar



Mitchell Lake Water Level
Online Cameras

 


      

Current Conditions in Clanton
7/15/2024 1:00:29 PM

92°F
Feels Like 104
Clouds
Humidity
62%
Pressure
30.03"
Wind
4.5 mph (WSW)
Dew Point
77°F
UV Index
11/10 (Extreme)
Visibility
6 mi

Hourly Forecast

Date & Time Mon, Jul 15
1:00 PM
Mon, Jul 15
2:00 PM
Mon, Jul 15
3:00 PM
Mon, Jul 15
4:00 PM
Mon, Jul 15
5:00 PM
Mon, Jul 15
6:00 PM
Mon, Jul 15
7:00 PM
Mon, Jul 15
8:00 PM
Mon, Jul 15
9:00 PM
Mon, Jul 15
10:00 PM
Mon, Jul 15
11:00 PM
Tue, Jul 16
12:00 AM
Tue, Jul 16
1:00 AM
Tue, Jul 16
2:00 AM
Tue, Jul 16
3:00 AM
Tue, Jul 16
4:00 AM
Tue, Jul 16
5:00 AM
Tue, Jul 16
6:00 AM
Tue, Jul 16
7:00 AM
Tue, Jul 16
8:00 AM
Tue, Jul 16
9:00 AM
Tue, Jul 16
10:00 AM
Tue, Jul 16
11:00 AM
Tue, Jul 16
12:00 PM
Tue, Jul 16
1:00 PM
Tue, Jul 16
2:00 PM
Tue, Jul 16
3:00 PM
Tue, Jul 16
4:00 PM
Tue, Jul 16
5:00 PM
Tue, Jul 16
6:00 PM
Tue, Jul 16
7:00 PM
Tue, Jul 16
8:00 PM
Tue, Jul 16
9:00 PM
Tue, Jul 16
10:00 PM
Tue, Jul 16
11:00 PM
Wed, Jul 17
12:00 AM
Wed, Jul 17
1:00 AM
Wed, Jul 17
2:00 AM
Wed, Jul 17
3:00 AM
Wed, Jul 17
4:00 AM
Wed, Jul 17
5:00 AM
Wed, Jul 17
6:00 AM
Wed, Jul 17
7:00 AM
Wed, Jul 17
8:00 AM
Wed, Jul 17
9:00 AM
Wed, Jul 17
10:00 AM
Wed, Jul 17
11:00 AM
Wed, Jul 17
12:00 PM
Condition
Clouds

Clouds

Clouds

Clouds

Clouds

Clouds

Rain

Rain

Rain

Rain

Clouds

Rain

Clouds

Clear

Clear

Clouds

Clouds

Clouds

Clouds

Clouds

Clouds

Clouds

Clouds

Clouds

Clouds

Clouds

Clouds

Clouds

Clouds

Rain

Clouds

Clouds

Clouds

Clouds

Clouds

Clouds

Clouds

Clouds

Rain

Rain

Clouds

Clouds

Rain

Rain

Clouds

Clouds

Clouds

Clouds
Temperature 92°F92°F93°F94°F95°F94°F84°F75°F74°F74°F74°F72°F71°F71°F71°F71°F71°F72°F74°F78°F83°F88°F91°F95°F96°F95°F92°F91°F93°F83°F79°F77°F76°F76°F75°F75°F74°F75°F75°F76°F75°F74°F75°F78°F82°F87°F91°F94°F
Feels Like 104°F104°F103°F101°F99°F96°F87°F76°F75°F75°F75°F73°F72°F73°F73°F73°F73°F73°F76°F80°F88°F94°F97°F99°F100°F99°F97°F96°F96°F88°F79°F78°F77°F77°F76°F76°F76°F77°F77°F77°F77°F75°F77°F80°F88°F94°F97°F100°F
Cloudiness 89%87%73%58%45%30%35%100%93%95%75%62%51%0%0%31%39%52%60%82%80%87%92%76%78%88%94%95%97%98%98%98%98%99%99%99%98%60%64%66%66%64%70%99%99%99%97%89%
Visibility 6 mi6 mi6 mi6 mi6 mi6 mi6 mi6 mi6 mi6 mi6 mi6 mi6 mi6 mi6 mi6 mi6 mi6 mi6 mi6 mi6 mi6 mi6 mi6 mi6 mi6 mi6 mi6 mi6 mi6 mi6 mi6 mi6 mi6 mi6 mi6 mi6 mi6 mi6 mi6 mi6 mi6 mi6 mi6 mi6 mi6 mi6 mi6 mi
Precipitation 0%0%0%0%0%0%22%100%100%100%80%100%80%0%0%0%0%0%0%0%0%0%0%0%0%0%0%0%0%23%0%0%0%0%0%0%0%21%59%58%50%42%55%59%41%27%16%7%
Humidity 62%57%52%47%40%39%57%86%89%88%89%96%96%96%96%95%95%95%92%84%71%59%49%41%39%39%47%48%42%68%76%77%77%80%85%89%91%91%90%89%90%93%91%85%74%60%52%44%
Dew Point 77°F75°F73°F71°F67°F65°F67°F71°F71°F70°F70°F70°F70°F70°F70°F70°F70°F70°F72°F73°F73°F71°F70°F68°F67°F67°F68°F69°F67°F71°F71°F69°F68°F69°F70°F71°F72°F72°F72°F72°F72°F72°F72°F73°F73°F72°F71°F69°F
Pressure 30.03"30.03"30"29.97"29.94"29.91"29.94"29.97"29.97"29.97"29.97"30"29.97"29.97"29.97"29.97"29.97"30"30"30.03"30.03"30.03"30"30"29.97"29.97"29.94"29.94"29.94"29.94"29.94"29.97"29.97"29.97"29.97"29.97"29.97"29.97"29.97"29.97"30"30"30.03"30.03"30.03"30.03"30.03"30"
Wind Speed 4.5 mph5.6 mph6.3 mph7.4 mph7 mph6.5 mph6.2 mph2.5 mph2.8 mph0.7 mph3.6 mph7.6 mph4.4 mph5.9 mph4.7 mph4 mph3.5 mph3.1 mph3.3 mph5.1 mph4.8 mph4.7 mph4.8 mph5.8 mph6.6 mph4.6 mph2.3 mph1.9 mph7.3 mph6.9 mph4.5 mph5.8 mph5.7 mph6.5 mph5 mph4.3 mph4.6 mph5.2 mph5.2 mph5.2 mph5.3 mph5.4 mph4.8 mph6.3 mph6.6 mph7.1 mph7.1 mph6.6 mph
Wind
Direction
256°
WSW
247°
WSW
247°
WSW
248°
WSW
251°
WSW
247°
WSW
248°
WSW
67°
ENE
66°
ENE
49°
NE
95°
E
126°
SE
146°
SE
149°
SSE
163°
SSE
205°
SSW
198°
SSW
222°
SW
231°
SW
248°
WSW
249°
WSW
246°
WSW
240°
WSW
247°
WSW
250°
WSW
271°
W
278°
W
210°
SSW
170°
S
150°
SSE
171°
S
220°
SW
208°
SSW
218°
SW
186°
S
197°
SSW
204°
SSW
220°
SW
222°
SW
226°
SW
222°
SW
218°
SW
238°
WSW
248°
WSW
264°
W
271°
W
266°
W
259°
W

Daily Forecast

Date High Low Precip. Humidity
Today
Jul 15

Rain
95 °F
73 °F
100%
60%
Tuesday
Jul 16

Rain
96 °F
71 °F
100%
41%
Wednesday
Jul 17

Rain
97 °F
71 °F
100%
44%
Thursday
Jul 18

Rain
93 °F
68 °F
100%
57%
Friday
Jul 19

Rain
91 °F
69 °F
100%
48%
Saturday
Jul 20

Rain
94 °F
69 °F
80%
48%
Sunday
Jul 21

Rain
92 °F
71 °F
93%
45%
Monday
Jul 22

Rain
92 °F
71 °F
100%
49%
Tuesday
Jul 23

Rain
86 °F
70 °F
100%
58%
Wednesday
Jul 24

Rain
82 °F
71 °F
100%
74%
Thursday
Jul 25

Rain
91 °F
72 °F
100%
52%
Friday
Jul 26

Rain
77 °F
73 °F
100%
94%
Saturday
Jul 27

Rain
85 °F
69 °F
100%
68%
Sunday
Jul 28

Rain
92 °F
69 °F
100%
57%
Monday
Jul 29

Rain
84 °F
69 °F
100%
58%
Tuesday
Jul 30

Rain
94 °F
71 °F
100%
47%

Temperature 8-14 Day Outlook



Precipitation 8-14 Day Outlook




Quick Links
Mitchell Lake News
Mitchell Lake Photos
Mitchell Lake Videos




About Us
Contact Us
Site Map
Search Site
Advertise With Us
   
www.LakeMitchell.com
THE MITCHELL LAKE WEBSITE

Copyright 2024, Lakes Online
Privacy    |    Legal